Flag for Sudan Weather past 2 weeks in Khartoum, Sudan

Now
100 °F

Sunny.


Feels Like: 100 °F
Forecast: 86 / 103 °F
Wind: 10 mph from West

Location: Khartoum Airport

Current Time: Aug 4, 2015 at 5:20:35 PM

Latest Report: Aug 4, 2015 at 5:00 PM


Visibility: 10 mi

Pressure: 29.74 "Hg

Humidity: 24%

Dew point: 57 °F

Location of KhartoumLocation

Historic Weather in Khartoum — Graph

°F

Khartoum temperature yesterday

Maximum temperature yesterday: 104 °F (at 5:00 PM)
Minimum temperature yesterday: 84 °F (at 7:00 AM)
Average temperature yesterday: 94 °F

Past Weeks' High & Low Weather Summary

 TemperatureHumidityPressure
High108 °F (Jul 21, 3:00 PM)79% (Aug 2, 6:00 AM)32.43 "Hg (Aug 2, 6:00 AM)
Low77 °F (Aug 2, 6:00 AM)8% (Jul 28, 4:00 PM)29.68 "Hg (Jul 28, 5:30 PM)
Average93 °F34%29.82 "Hg
* Reported Jul 20 4:00 PM — Aug 4 4:00 PM, Khartoum, Weather by CustomWeather, © 2015

Note: Actual official high and low records may vary slightly from our data, if they occured in-between our weather recording intervals... More about our weather records

Advertising

Khartoum weather history for previous 24 hours

 ConditionsComfort  
Time TempWeatherWind HumidityBarometerVisibility
4:00 PM
Tue, Aug 4
100 °FExtremely hot.13 mph24%29.74 "HgN/A
3:30 PMN/A12 mphN/AN/AN/A
3:00 PM97 °FExtremely hot.12 mph22%29.77 "HgN/A
2:30 PMN/A12 mphN/AN/AN/A
2:00 PM99 °FSunny.15 mph29%29.80 "Hg10 mi
1:30 PMN/ASunny.14 mphN/A29.80 "Hg10 mi
1:00 PM97 °FSunny.16 mph32%29.80 "Hg10 mi
12:30 PMN/ASunny.16 mphN/A29.80 "Hg10 mi
12:00 PM95 °FSunny.14 mph34%29.83 "Hg10 mi
11:30 AMN/ASunny.14 mphN/A29.83 "Hg10 mi
11:00 AM93 °FSunny.14 mph39%29.83 "Hg10 mi
10:30 AMN/ASunny.21 mphN/A29.83 "Hg10 mi
10:00 AM88 °FSunny.16 mph52%29.86 "Hg10 mi
9:30 AMN/ASunny.20 mphN/A29.86 "Hg10 mi
9:00 AM84 °FSunny.16 mph58%29.83 "Hg10 mi
8:30 AMN/ASunny.20 mphN/A29.83 "Hg10 mi
8:00 AM82 °FSunny.13 mph58%29.83 "Hg10 mi
7:30 AMN/ASunny.20 mphN/A29.86 "Hg10 mi
7:00 AM82 °FWarm.15 mph58%29.86 "HgN/A
3:30 AMN/AClear.17 mphN/A29.77 "Hg10 mi
2:30 AMN/AClear.14 mphN/A29.77 "Hg10 mi
2:00 AM90 °FClear.15 mph43%29.77 "Hg10 mi
1:00 AM93 °FClear.18 mph36%29.77 "Hg10 mi
12:30 AMN/AClear.14 mphN/A29.77 "Hg10 mi
12:00 AM95 °FClear.12 mph32%29.77 "Hg10 mi
11:30 PM
Mon, Aug 3
N/AClear.13 mphN/A29.77 "Hg10 mi
11:00 PM97 °FClear.8 mph27%29.77 "Hg10 mi
10:30 PMN/AClear.6 mphN/A29.77 "Hg10 mi
10:00 PM99 °FClear.3 mph21%29.77 "Hg10 mi
9:30 PMN/AClear.5 mphN/A29.77 "Hg10 mi
9:00 PM99 °FClear.2 mph22%29.77 "Hg10 mi
8:00 PM100 °FClear.3 mph20%29.77 "Hg10 mi
7:30 PMN/AClear.7 mphN/A29.74 "Hg10 mi
7:00 PM102 °FSunny.7 mph18%29.74 "Hg10 mi
6:30 PMN/ASunny.9 mphN/A29.74 "Hg10 mi
6:00 PM104 °FSunny.13 mph17%29.74 "Hg10 mi
5:30 PMN/ASunny.7 mphN/A29.77 "Hg10 mi
5:00 PM104 °FSunny.9 mph20%29.77 "Hg10 mi
Weather by CustomWeather, © 2015

See weather overviewHow to use our weather pages